Tracking 29591 objects as of 19-Sep-2024
HD Live streaming from Space Station
objects crossing your sky now

SL-8 R/B

Track SL-8 R/B now!
10-day predictions


NORAD ID: 21131
Int'l Code: 1991-013B
Perigee: 921.6 km
Apogee: 1,016.9 km
Inclination: 82.8 °
Period: 104.3 minutes
Semi major axis: 7340 km
RCS: 7.7831 m2 (large)
Launch date: February 26, 1991
Source: Commonwealth of Independent States (former USSR) (CIS)
Launch site: PLESETSK MISSILE AND SPACE COMPLEX (PKMTR)

Note: This is a ROCKET BODY
Your satellite tracking list
Your tracking list is empty




NASA's NSSDC Master Catalog

Two Line Element Set (TLE):
1 21131U 91013B   24262.59239728  .00000145  00000-0  12139-3 0  9992
2 21131  82.8266 311.6879 0064920  88.2663 272.5930 13.80503542690230
Source of the keplerian elements: AFSPC